Погода в Карауле

Поиск расширенной информации на нашем сайте:

Полезная информация:

Новости сайта



02.01.2020
Опубликован Долгосрочный прогноз погоды по городам России и ближнего зарубежья на январь 2020 года.
Карты: Прогноз на январь и февраль 2020 года, Сравнение прогнозируемой аномалии приземной температуры воздуха на январь 2020 года по разным моделям.




Погода в Карауле - сегодня

Время (UTC), дата Ветер
(°,м/с) 
Видим.   Явления Облачность Т
(°С)
Тd
(°С)
f(%) Тe
(°С)
Pmin
(гПа)
dP
(гПа)
Po
(мм)
O2
(г/м3)
Тmin Tmax R s Состояние
почвы
09 22.10.21 тихо ()   20000 м    9/9 1000 м 
[Sc]
+3.7 -2.4 64 +4  1027.5  715  284           
12 22.10.21 тихо ()   20000 м    9/9 1000 м 
[Sc]
+2.9 -2.1 70 +3  1029.6  1.7  716  286           
15 22.10.21 тихо ()   н/о    9/9 1000 м 
[Sc]
+2.7 -4.8 58 +3  1032.5  2.6  718  287    +4.2       
18 22.10.21 тихо ()   н/о    9/9 1000 м 
[Sc]
+2 -3.2 68 +2  1033.5  0.8  719  288    +4.2       
21 22.10.21 тихо ()   н/о    6/6 1000 м 
[Sc]
+1.2 -3.9 69 +1  1033.7  719  289           
00 23.10.21 180 (Ю) н/о    6/6 1000 м 
[Sc]
+1.2 -3.5 71 +1  1033.4  -0.3  719  289           
03 23.10.21 230 (ЮЗ) 10  20000 м    9/9 1000 м 
[Sc]
+1.8 -5.6 58 -3  1032.7  -0.5  718  288           
06 23.10.21 230 (ЮЗ) 16-20{20}  20000 м    6/0 средняя 
[Ac trans]
+5.1 -4.7 49 1030.1  -1.6  717  284  +0.9         
09 23.10.21 230 (ЮЗ) 16-20{20}  20000 м    9/0 средняя 
[Ac trans]
+5.9 -3.2 52 +1  1029.7  -0.1  717  283           
12 23.10.21 230 (ЮЗ) 8{20}  20000 м    9/9 1000 м 
[Sc]
+5.1 -4.7 49 +2  1031  718  284           
15 23.10.21 200 (Ю) н/о    3/3 1000 м 
[Sc]
+3.7 -1.7 68 1031.8  0.4  718  286    +6.2       
18 23.10.21 200 (Ю) н/о    8/6 1000 м средняя 
[Sc|Ac trans]
+4.1 -2.9 60 +1  1032.8  719  286    +6.2       
21 23.10.21 200 (Ю) н/о    9/6 1000 м средняя 
[Sc|Ac trans]
+4.4 -3.2 58 +2  1033  0.3  719  285           
00 24.10.21 200 (Ю) н/о    8/3 1000 м средняя 
[Sc|Ac trans]
+2.7 -3.3 65 -1  1032.1  -1.3  718  287           
03 24.10.21 200 (Ю) 10  20000 м    10/10 1000 м 
[Sc]
+2.6 -2.8 68 -2  1032.8  0.6  719  287           
06 24.10.21 200 (Ю) 10  20000 м    9/9 1000 м 
[Sc]
+7.5 -0.9 55 +4  1030.4  -0.9  718  282  +2.4         
09 24.10.21 200 (Ю) 20000 м    ясно 
+10.6 -0.7 45 +11  1028.7  -0.9  717  278           
12 24.10.21 тихо ()   20000 м    ясно 
+7.5 -0.3 58 +8  1029.9  0.4  717  281           
15 24.10.21 тихо ()   н/о    ясно 
+3.9 -3.1 60 +4  1030.3  -0.6  717  285    +11.2       
18 24.10.21 тихо ()   н/о    ясно 
+2.5 -4.3 61 +3  1029.4  -1.2  716  286    +11.2       
21 24.10.21 тихо ()   н/о    ясно 
+0.2 -5.1 67 1027.9  -2  715  288           
00 25.10.21 тихо ()   н/о    ясно 
-1.4 -6.4 69 -1  1026.9  -1.3  714  290           
03 25.10.21 тихо ()   20000 м    ясно 
+2.3 -1.2 78 +2  1025.1  -0.7  713  285           
06 25.10.21 тихо ()   20000 м    ясно 
+8 -2.5 47 +8  1022.1  -1.3  712  279  -2         
09 25.10.21 тихо ()   20000 м    ясно 
+10.5 -1.4 43 +11  1020.1  -1.3  711  276           
Время (UTC), дата Ветер
(°,м/с) 
Видим.   Явления Облачность Т
(°С)
Тd
(°С)
f(%) Тe
(°С)
Pmin
(гПа)
dP
(гПа)
Po
(мм)
O2
(г/м3)
Тmin Tmax R s Состояние
почвы

Для получения пояснительной информации подведите курсор к названию столбца.

ПОГОДА в Карауле - архив

Всё, что Вы хотите узнать о погоде в Карауле - удобно и подробно!

Выберите нужную дату (начиная с 1 января 2019* года) и нажмите кнопку "Найти".
Будут отображены архивные сводки погоды по пункту Караул, начиная с указанной даты.


Отображать данные в формате CSV (для использования в таблицах Excel)


Внимание! Наш архив погоды предназначен исключительно для личного некоммерческого использования в познавательных целях. Если Вам необходимы официальные справки о состоянии погоды (для производственных, юридических, коммерческих и т.п. целей), обращайтесь в органы Росгидромета.

*Примечание: данная дата относится к архиву по метеостанциям СССР (Россия, СНГ, Балтия).
Архив по метеостанциям Зарубежной Европы и Азии (кроме Китая) хранится 10 дней, по другим регионам земного шара (Китай, Африка, Америка, Австралия, Океания) - 1 день.

Караул - район местоположения метеостанции


Название, широта, долгота, высота метеостанции:
Караул 49°ш. 79.3°д. 618 м над ур. моря [Казахстан]

Дополнительная информация

В oтличие oт бoльшинства пoгoдных сайтoв мы публикуем пoдрoбную метеoинфoрмацию в детальнoм прoфессиoнальнoм фoрмате.

Характеристики температуры и влажнoсти вoздуха измеряются на высoте 2 м в тени вдали oт зданий и деревьев.
Скoрoсть ветра измеряется на высoте 10 м (на урoвне рoста челoвека скoрoсть ветра ниже в 1.5-2 раза). Если метеoстанция нахoдится в гoрoде или в лесу, тo скoрoсть ветра занижена на 2-4 м/с пo сравнению с oткрытым местoм. Скoрoсть ветра над акватoриями крупных рек и oзёр, а также на вершинах хoлмoв на 2-5 м/с выше, чем в oбычных услoвиях.
Атмoсфернoе давление в разных тoчках местнoсти мoжет значительнo oтличаться oт давления на метеoстанции, в зависимoсти oт услoвий рельефа (при пoдъёме на 10 м давление пoнижается примернo на 1 мм рт.ст.).